Regional Weather Roundup
Issued by NWS

Home | Current Version | Previous Version | Text Only | Print | Product List | Glossary On
Versions: 1 2 3 4 5 6 7 8 9 10 11 12 13 14 15 16 17 18 19 20 21 22 23 24 25 26 27
000
ASUS45 KREV 190910
RWRNV
NEVADA REGIONAL WEATHER ROUNDUP
NATIONAL WEATHER SERVICE RENO NV
200 AM PDT THU OCT 19 2017

NOTE: "FAIR" INDICATES FEW OR NO CLOUDS BELOW 12,000 FEET WITH NO
SIGNIFICANT WEATHER AND/OR OBSTRUCTIONS TO VISIBILITY.

NVZ001-003-004-191000-
WESTERN NEVADA

CITY           SKY/WX    TMP DP  RH WIND       PRES   REMARKS
RENO           CLEAR     46  25  43 CALM      30.01F
CARSON CITY    FAIR      41  25  52 CALM      30.04S
MINDEN           N/A     36  27  69 W6        30.04S
FALLON         PTCLDY    41  21  44 S3        29.97S
LOVELOCK       PTCLDY    31  16  54 CALM      29.97S
HAWTHORNE      CLEAR     52  14  22 CALM      29.99R
$$

NVZ002-CAZ072-073-191000-
NORTHERN AND CENTRAL SIERRA

CITY           SKY/WX    TMP DP  RH WIND       PRES   REMARKS
S. LAKE TAHOE  CLEAR     32  24  72 CALM      30.11F
TRUCKEE        CLEAR     30  23  74 CALM      30.11S
SQUAW VLY 8000   N/A     43   9  24 S14         N/A
SUSANVILLE     CLEAR     45  18  33 MISG      30.00S
BLUE CANYON    CLEAR     52  24  33 SE6       30.10F
MAMMOTH LAKES  FAIR      32  17  55 CALM      30.17F
BRIDGEPORT     FAIR      31  20  63 CALM      30.12F
$$

NVZ030-031-036-191000-
NORTHERN NEVADA

CITY           SKY/WX    TMP DP  RH WIND       PRES   REMARKS
ELKO           CLOUDY    32  15  49 NE5       30.05S
WINNEMUCCA     MOCLDY    31   7  36 CALM      29.97F
WENDOVER       MOCLDY    40  21  46 CALM      30.04F
$$

NVZ035-037-191000-
CENTRAL NEVADA

CITY           SKY/WX    TMP DP  RH WIND       PRES   REMARKS
ELY            MOCLDY    36   7  29 S8        30.11F
EUREKA           N/A     39  11  31 SW10      30.07F
$$

NVZ013-014-191000-
SOUTH CENTRAL NEVADA

CITY           SKY/WX    TMP DP  RH WIND       PRES   REMARKS
TONOPAH        MOCLDY    45  14  28 N12       30.08S
$$

NVZ017-020-022-191000-
SOUTHERN NEVADA

CITY           SKY/WX    TMP DP  RH WIND       PRES   REMARKS
LAS VEGAS      MOCLDY    68  23  18 W5        29.89S
N. LAS VEGAS   MOCLDY    66  28  24 NW7       29.89F
NELLIS AFB     NOT AVBL
HENDERSON      PTCLDY    68  14  12 S8        29.93S
MERCURY        CLOUDY    67  45  45 N6        29.95F
$$




USA.gov is the U.S. government's official web portal to all federal, state and local government web resources and services.